Latest Weather Observations for Goulburn Airport

IDN60801

Issued at 8:32 am EST Sunday 5 July 2015 (issued every 30 minutes, with the page automatically refreshed every 10 minutes)

About weather observations | Map of weather stations | Latest weather observations for NSW | Other Formats
Station Details ID: 070330 Name: GOULBURN AIRPORT AWS Lat: -34.81 Lon: 149.73 Height: 640.0 m
Data from the previous 72 hours. | See also: Recent months at Goulburn Airport
Date/Time
EST
Temp
°C
App
Temp
°C
Dew
Point
Rel
Hum
%
Delta-T
°C
Wind Press
QNH
hPa
Press
MSL
hPa
Rain
since 9 am
mm
Dir
 
Spd
km/h
Gust
km/h
Spd
kts
Gust
kts
05/08:30am -1.0 -5.3 -1.6 96 0.2 N 11 13 6 7 1022.0 1023.1 0.0
05/08:00am -2.7 -7.6 -3.2 96 0.0 N 13 13 7 7 1022.1 1023.2 0.0
05/07:30am -4.4 -9.1 -5.2 94 0.1 N 11 13 6 7 1022.1 1023.2 0.0
05/07:00am -4.9 -9.3 -5.7 94 0.1 N 9 11 5 6 1022.0 1023.1 0.0
05/06:30am -4.8 -9.2 -5.6 94 0.1 N 9 11 5 6 1021.6 1022.7 0.0
05/06:00am -4.1 -8.4 -4.8 95 0.1 NNW 9 11 5 6 1021.2 1022.4 0.0
05/05:30am -4.5 -8.5 -5.3 94 0.1 N 7 9 4 5 1021.0 1022.1 0.0
05/05:00am -4.0 -8.7 -4.7 95 0.1 N 11 13 6 7 1021.0 1022.1 0.0
05/04:30am -4.7 -8.5 -5.5 94 0.1 N 6 9 3 5 1021.0 1022.1 0.0
05/04:00am -4.4 -7.0 -5.2 94 0.1 CALM 0 0 0 0 1021.2 1022.4 0.0
05/03:30am -4.0 -6.6 -4.8 94 0.1 CALM 0 0 0 0 1021.6 1022.7 0.0
05/03:00am -3.5 -6.0 -4.2 95 0.1 CALM 0 0 0 0 1021.7 1022.8 0.0
05/02:30am -2.8 -5.2 -3.5 95 0.1 CALM 0 0 0 0 1021.9 1023.0 0.0
05/02:00am -3.1 -6.9 -3.9 94 0.1 N 7 9 4 5 1022.2 1023.3 0.0
05/01:30am -4.1 -8.8 -5.3 91 0.2 NNW 11 13 6 7 1022.1 1023.2 0.0
05/01:00am -3.4 -7.7 -4.4 93 0.2 NNW 9 11 5 6 1021.9 1023.0 0.0
05/12:30am -3.3 -6.9 -4.0 95 0.1 NW 6 11 3 6 1021.8 1022.9 0.0
05/12:00am -2.8 -5.2 -3.5 95 0.1 CALM 0 0 0 0 1022.0 1023.1 0.0
 
Date/Time
EST
Temp
°C
App
Temp
°C
Dew
Point
Rel
Hum
%
Delta-T
°C
Wind Press
QNH
hPa
Press
MSL
hPa
Rain
since 9 am
mm
Dir
 
Spd
km/h
Gust
km/h
Spd
kts
Gust
kts
04/11:30pm -2.9 -5.4 -3.6 95 0.1 CALM 0 0 0 0 1022.2 1023.3 0.0
04/11:00pm -3.0 -5.5 -4.3 91 0.3 CALM 0 7 0 4 1022.3 1023.4 0.0
04/10:30pm -2.4 -4.8 -3.5 92 0.3 CALM 0 0 0 0 1022.3 1023.4 0.0
04/10:00pm -1.1 -3.4 -2.4 91 0.4 CALM 0 0 0 0 1022.3 1023.4 0.0
04/09:30pm -0.3 -4.6 -1.7 90 0.5 NNW 11 13 6 7 1022.3 1023.4 0.0
04/09:00pm -0.4 -4.0 -2.3 87 0.7 N 7 9 4 5 1022.2 1023.3 0.0
04/08:30pm -0.3 -4.3 -1.9 89 0.6 NNE 9 13 5 7 1022.5 1023.7 0.0
04/08:00pm 0.7 -2.7 -0.9 89 0.6 N 7 9 4 5 1022.5 1023.7 0.0
04/07:30pm 0.3 -1.9 -1.4 88 0.6 CALM 0 6 0 3 1022.7 1023.9 0.0
04/07:00pm 0.4 -3.9 -1.8 85 0.8 W 11 15 6 8 1022.5 1023.7 0.0
04/06:30pm 1.9 -0.2 -0.7 83 1.0 CALM 0 2 0 1 1022.4 1023.6 0.0
04/06:00pm 2.1 -2.8 -0.8 81 1.1 W 15 20 8 11 1022.2 1023.2 0.0
04/05:30pm 3.4 -2.2 -0.2 77 1.4 WNW 19 22 10 12 1021.6 1022.7 0.0
04/05:00pm 4.8 -0.4 -0.2 70 2.0 W 17 22 9 12 1021.4 1022.6 0.0
04/04:30pm 6.4 1.6 0.3 65 2.5 W 15 20 8 11 1021.2 1022.4 0.0
04/04:00pm 7.3 0.5 0.5 62 2.8 W 26 32 14 17 1021.1 1022.3 0.0
04/03:30pm 8.0 2.9 0.7 60 3.0 WNW 17 24 9 13 1021.1 1022.3 0.0
04/03:00pm 8.0 1.1 0.0 57 3.3 W 26 37 14 20 1021.0 1022.1 0.0
04/02:30pm 8.2 1.7 0.0 56 3.4 W 24 30 13 16 1020.6 1021.7 0.0
04/02:00pm 8.2 1.3 0.4 58 3.2 WNW 26 33 14 18 1020.5 1021.6 0.0
04/01:30pm 7.7 0.5 0.9 62 2.8 WNW 28 37 15 20 1020.8 1021.9 0.0
04/01:00pm 7.4 -0.6 0.6 62 2.8 WNW 32 39 17 21 1021.0 1022.1 0.0
04/12:30pm 7.3 -0.3 0.5 62 2.8 WNW 30 41 16 22 1021.4 1022.6 0.0
04/12:00pm 6.2 -1.8 0.3 66 2.4 WNW 32 41 17 22 1021.7 1022.8 0.0
04/11:30am 6.0 -2.1 -0.3 64 2.5 WNW 32 41 17 22 1022.0 1023.1 0.0
04/11:00am 5.9 -2.4 -0.4 64 2.5 WNW 33 43 18 23 1022.4 1023.6 0.0
04/10:30am 5.5 -1.7 0.5 70 2.0 WNW 28 39 15 21 1022.5 1023.7 0.0
04/10:00am 4.1 -4.0 -0.5 72 1.8 WNW 32 41 17 22 1022.4 1023.6 0.0
04/09:30am 4.1 -2.4 0.4 77 1.5 W 24 37 13 20 1022.2 1023.3 0.0
04/09:00am 3.1 -1.4 0.0 80 1.2 NW 13 22 7 12 1022.2 1023.3 0.0
04/08:30am 2.4 -2.1 -0.4 82 1.1 NW 13 17 7 9 1022.2 1023.3 0.0
04/08:00am 1.5 -5.2 -0.9 84 0.9 NW 24 33 13 18 1021.9 1023.0 0.0
04/07:30am 1.0 -3.6 -1.1 86 0.8 NW 13 20 7 11 1022.1 1023.2 0.0
04/07:00am 1.0 -4.9 -1.1 86 0.8 NW 20 26 11 14 1021.9 1023.0 0.0
04/06:30am 0.6 -4.0 -1.2 88 0.7 NW 13 17 7 9 1021.9 1023.0 0.0
04/06:00am 0.4 -5.0 -1.2 89 0.6 NW 17 19 9 10 1021.7 1022.8 0.0
04/05:30am 0.3 -4.7 -1.0 91 0.5 NW 15 19 8 10 1021.9 1023.0 0.0
04/05:00am -0.5 -5.5 -1.5 93 0.3 NNW 15 19 8 10 1021.7 1022.8 0.0
04/04:30am -1.5 -5.9 -2.8 91 0.4 N 11 13 6 7 1021.8 1022.9 0.0
04/04:00am -1.1 -5.9 -2.4 91 0.4 NW 13 13 7 7 1022.0 1023.1 0.0
04/03:30am -0.5 -6.5 -1.8 91 0.4 WNW 20 24 11 13 1022.1 1023.2 0.0
04/03:00am -1.1 -5.9 -2.7 89 0.5 NW 13 17 7 9 1022.4 1023.6 0.0
04/02:30am -0.1 -5.9 -1.5 90 0.5 WNW 19 24 10 13 1022.7 1023.9 0.0
04/02:00am -2.1 -5.8 -3.1 93 0.2 NW 7 13 4 7 1022.8 1024.0 0.0
04/01:30am -2.0 -5.5 -3.1 92 0.3 NNE 6 9 3 5 1023.4 1024.5 0.0
04/01:00am -2.2 -5.0 -3.2 93 0.2 NNE 2 7 1 4 1023.3 1024.4 0.0
04/12:30am -2.2 -5.7 -3.2 93 0.2 ENE 6 9 3 5 1023.0 1024.2 0.0
04/12:00am -2.6 -5.1 -3.9 91 0.3 CALM 0 4 0 2 1023.9 1025.1 0.0
 
Date/Time
EST
Temp
°C
App
Temp
°C
Dew
Point
Rel
Hum
%
Delta-T
°C
Wind Press
QNH
hPa
Press
MSL
hPa
Rain
since 9 am
mm
Dir
 
Spd
km/h
Gust
km/h
Spd
kts
Gust
kts
03/11:30pm -3.1 -7.0 -4.5 90 0.3 W 7 9 4 5 1024.1 1025.3 0.0
03/11:00pm -3.0 -8.1 -5.2 85 0.6 WNW 13 13 7 7 1024.2 1025.4 0.0
03/10:30pm -1.8 -6.3 -3.1 91 0.4 NNW 11 15 6 8 1024.4 1025.6 0.0
03/10:00pm -2.3 -6.9 -4.5 85 0.6 NW 11 13 6 7 1024.6 1025.8 0.0
03/09:30pm -1.6 -5.2 -3.8 85 0.7 N 6 7 3 4 1024.9 1026.0 0.0
03/09:00pm -1.3 -5.8 -3.0 88 0.5 N 11 13 6 7 1024.9 1026.0 0.0
03/08:30pm -1.7 -6.3 -4.0 84 0.7 NNE 11 13 6 7 1024.9 1026.0 0.0
03/08:00pm -1.1 -4.7 -3.4 84 0.7 ENE 6 9 3 5 1024.9 1026.0 0.0
03/07:30pm -0.7 -3.0 -2.6 87 0.6 CALM 0 0 0 0 1024.9 1026.0 0.0
03/07:00pm -0.1 -2.4 -2.3 85 0.8 CALM 0 0 0 0 1024.9 1026.0 0.0
03/06:30pm 0.7 -1.5 -1.4 86 0.8 CALM 0 0 0 0 1025.0 1026.1 0.0
03/06:00pm -0.1 -5.0 -3.1 80 1.0 W 13 15 7 8 1024.6 1025.8 0.0
03/05:30pm 2.3 -3.1 -1.5 76 1.4 W 17 17 9 9 1024.5 1025.7 0.0
03/05:00pm 4.0 -0.7 -1.8 66 2.2 W 13 17 7 9 1024.1 1025.3 0.0
03/04:30pm 7.4 3.6 -1.0 55 3.3 W 9 11 5 6 1024.1 1025.3 0.0
03/04:00pm 8.6 3.9 -1.8 48 4.1 W 13 15 7 8 1024.3 1025.5 0.0
03/03:30pm 9.0 4.7 -1.4 48 4.2 NW 11 15 6 8 1024.3 1025.5 0.0
03/03:00pm 8.7 4.0 -2.0 47 4.2 W 13 19 7 10 1024.1 1025.3 0.0
03/02:30pm 8.8 4.5 -1.6 48 4.1 WNW 11 13 6 7 1024.1 1025.3 0.0
03/02:00pm 8.8 5.7 -2.5 45 4.4 NNW 4 9 2 5 1024.2 1025.4 0.0
03/01:30pm 8.9 5.6 -0.9 50 4.0 WSW 6 9 3 5 1024.5 1025.7 0.0
03/01:00pm 8.3 4.9 -1.8 49 4.0 NE 6 9 3 5 1025.0 1026.1 0.0
03/12:30pm 7.0 3.6 -2.4 51 3.6 SSE 6 9 3 5 1025.8 1027.0 0.0
03/12:00pm 7.1 3.5 -2.1 52 3.5 N 7 9 4 5 1026.0 1027.2 0.0
03/11:30am 6.5 3.6 -1.4 57 3.1 NNE 4 7 2 4 1026.3 1027.6 0.0
03/11:00am 5.6 2.4 -0.2 66 2.3 NNE 6 9 3 5 1026.7 1027.9 0.0
03/10:30am 3.8 0.3 -1.0 71 1.8 N 7 9 4 5 1027.0 1028.2 0.0
03/10:00am 2.4 -1.4 -1.0 78 1.3 N 9 11 5 6 1027.2 1028.4 0.0
03/09:30am 0.6 -3.8 -2.1 82 1.0 N 11 15 6 8 1027.1 1028.3 0.0
03/09:00am -1.6 -5.3 -2.6 93 0.3 N 7 9 4 5 1027.1 1028.3 0.4
03/08:30am -3.8 -7.5 -4.9 92 0.2 NNE 6 7 3 4 1026.9 1028.1 0.2
03/08:00am -5.8 -8.6 -6.7 93 0.0 CALM 0 0 0 0 1026.6 1027.8 0.2
03/07:30am -6.9 -10.6 -8.0 92 0.1 SE 4 9 2 5 1026.1 1027.3 0.2
03/07:00am -7.4 -10.4 -8.9 89 0.1 CALM 0 0 0 0 1025.9 1027.1 0.2
03/06:30am -6.6 -9.5 -7.7 92 0.1 CALM 0 0 0 0 1025.5 1026.7 0.2
03/06:00am -6.8 -9.7 -7.9 92 0.1 CALM 0 0 0 0 1025.2 1026.4 0.2
03/05:30am -6.6 -9.4 -7.4 94 0.0 CALM 0 0 0 0 1024.9 1026.0 0.2
03/05:00am -7.5 -10.5 -8.8 90 0.1 CALM 0 0 0 0 1024.6 1025.8 0.2
03/04:30am -7.1 -10.0 -8.3 91 0.1 CALM 0 0 0 0 1024.5 1025.7 0.2
03/04:00am -6.5 -9.3 -7.4 93 0.0 CALM 0 0 0 0 1024.6 1025.8 0.2
03/03:30am -7.1 -10.0 -8.5 90 0.1 CALM 0 0 0 0 1024.5 1025.7 0.2
03/03:00am -6.1 -9.7 -7.0 93 0.0 NNW 4 7 2 4 1024.5 1025.7 0.2
03/02:30am -6.2 -9.0 -7.1 93 0.0 CALM 0 0 0 0 1024.5 1025.7 0.2
03/02:00am -6.5 -9.4 -7.9 90 0.2 CALM 0 0 0 0 1024.3 1025.5 0.2
03/01:30am -5.3 -8.0 -6.2 93 0.1 CALM 0 0 0 0 1024.4 1025.6 0.2
03/01:00am -5.5 -8.7 -6.7 91 0.1 ESE 2 6 1 3 1024.3 1025.5 0.2
03/12:30am -4.0 -7.7 -4.8 94 0.1 SW 6 9 3 5 1024.6 1025.8 0.2
03/12:00am -5.1 -9.9 -6.2 92 0.1 WSW 11 13 6 7 1024.7 1025.9 0.2
 
Date/Time
EST
Temp
°C
App
Temp
°C
Dew
Point
Rel
Hum
%
Delta-T
°C
Wind Press
QNH
hPa
Press
MSL
hPa
Rain
since 9 am
mm
Dir
 
Spd
km/h
Gust
km/h
Spd
kts
Gust
kts
02/11:30pm -4.3 -7.0 -5.5 91 0.2 CALM 0 4 0 2 1024.9 1026.0 0.2
02/11:00pm -2.8 -5.3 -3.8 93 0.2 CALM 0 0 0 0 1024.9 1026.0 0.2
02/10:30pm -2.4 -5.6 -3.7 91 0.3 ENE 4 7 2 4 1024.7 1025.9 0.2
02/10:00pm -1.5 -4.7 -3.4 87 0.6 W 4 9 2 5 1024.4 1025.6 0.2
02/09:30pm -0.4 -3.9 -1.5 92 0.4 NW 7 9 4 5 1024.2 1025.4 0.2
02/09:00pm -0.1 -4.7 -1.2 92 0.4 W 13 17 7 9 1023.7 1024.9 0.2
02/08:30pm 0.9 -3.9 -0.1 93 0.4 W 15 19 8 10 1023.6 1024.7 0.2
02/08:00pm 1.7 -2.6 0.7 93 0.4 WNW 13 19 7 10 1023.0 1024.2 0.2
02/07:30pm 0.9 -2.4 -1.2 86 0.8 W 6 15 3 8 1022.8 1024.0 0.2
02/07:00pm 2.2 -1.9 0.1 86 0.8 WSW 11 19 6 10 1022.1 1023.2 0.2
02/06:30pm 2.5 -1.9 0.6 87 0.7 W 13 17 7 9 1021.8 1022.9 0.2
02/06:00pm 4.1 -0.9 1.6 84 1.0 W 17 24 9 13 1020.9 1022.0 0.2
02/05:30pm 5.0 -1.9 2.4 83 1.1 W 28 39 15 21 1020.3 1021.4 0.2
02/05:00pm 5.3 -1.3 2.3 81 1.3 W 26 39 14 21 1020.0 1021.1 0.2
02/04:30pm 5.5 -2.2 2.2 79 1.4 W 32 39 17 21 1019.3 1020.4 0.2
02/04:00pm 6.1 -3.7 2.4 77 1.6 W 43 57 23 31 1018.7 1019.8 0.2
02/03:41pm 6.2 -3.6 2.5 77 1.6 WNW 43 61 23 33 1017.8 1018.9 0.2
02/03:35pm 6.2 -3.7 2.8 79 1.5 WNW 44 61 24 33 1017.6 1018.7 0.2
02/03:30pm 6.3 -3.6 2.9 79 1.5 W 44 59 24 32 1017.9 1019.0 0.2
02/03:10pm 6.1 -2.7 3.6 84 1.1 W 39 61 21 33 1018.4 1019.4 0.2
02/03:00pm 5.6 -2.1 3.6 87 0.9 W 33 48 18 26 1018.3 1019.3 0.2
02/02:30pm 5.7 -2.6 4.0 89 0.8 WNW 37 48 20 26 1017.8 1018.9 0.2
02/02:00pm 5.4 -2.1 4.2 92 0.5 WNW 33 44 18 24 1018.0 1019.1 0.2
02/01:30pm 5.5 -1.9 4.2 91 0.6 WNW 32 46 17 25 1018.3 1019.3 0.2
02/01:09pm 5.9 -1.0 4.4 90 0.7 W 30 41 16 22 1018.4 1019.4 0.0
02/01:00pm 5.8 -1.3 3.6 86 1.0 WNW 30 46 16 25 1018.5 1019.6 0.0
02/12:55pm 6.0 -0.7 3.5 84 1.1 WNW 28 46 15 25 1018.5 1019.6 0.0
02/12:30pm 6.8 0.3 2.5 74 1.8 WNW 26 35 14 19 1018.6 1019.7 0.0
02/12:23pm 7.2 -0.6 2.9 74 1.9 WNW 33 46 18 25 1018.7 1019.8 0.0
02/12:00pm 6.7 0.3 3.0 77 1.6 WNW 26 35 14 19 1019.3 1020.4 0.0
02/11:30am 6.1 -2.2 2.0 75 1.7 WNW 35 44 19 24 1020.2 1021.3 0.0
02/11:00am 5.3 -2.1 2.0 79 1.4 WNW 30 39 16 21 1020.7 1021.8 0.0
02/10:30am 5.2 -1.4 1.9 79 1.4 WNW 26 32 14 17 1021.2 1022.4 0.0
02/10:09am 4.8 -1.9 1.6 80 1.3 WNW 26 35 14 19 1021.9 1023.0 0.0
02/10:03am 5.4 -2.9 1.9 78 1.5 WNW 35 54 19 29 1021.8 1022.9 0.0
02/10:00am 6.1 -3.2 2.7 79 1.5 WNW 41 54 22 29 1021.8 1022.9 0.0
02/09:46am 4.8 -3.2 1.8 81 1.2 WNW 33 52 18 28 1021.2 1022.4 0.0
02/09:30am 5.0 -4.8 2.0 81 1.3 WNW 43 57 23 31 1020.9 1022.0 0.0
02/09:00am 4.3 -4.4 1.8 84 1.0 WNW 37 48 20 26 1020.7 1021.8 0.0

Other Formats:

Comma delimited format used in spreadsheet applications
http://www.bom.gov.au/fwo/IDN60801/IDN60801.95716.axf

JavaScript Object Notation format (JSON) in row-major order
http://www.bom.gov.au/fwo/IDN60801/IDN60801.95716.json